Weather History for KMOT - February, 2014

Change the Weather History Date:

Friday, February 21, 2014

  Actual Average Record
Temperature  
Mean Temperature 3 °F 19 °F  
Max Temperature 11 °F 27 °F 54 °F (1961)
Min Temperature -5 °F 11 °F -33 °F (1918)
Degree Days  
Heating Degree Days 62 46  
Month to date heating degree days 1199 1030  
Since 1 July heating degree days 6781 6262  
Moisture  
Dew Point -6 °F    
Average Humidity 69    
Maximum Humidity 79    
Minimum Humidity 58    
Precipitation  
Precipitation 0.00 in 0.02 in 0.56 in (1980)
Month to date precipitation 0.17 0.28  
Year to date precipitation 0.36 0.79  
Sea Level Pressure  
Sea Level Pressure 29.92 in    
Wind  
Wind Speed 15 mph (WNW)    
Max Wind Speed 24 mph    
Max Gust Speed 29 mph    
Visibility 10 miles    
Events      
T = Trace of Precipitation, MM = Missing Value Source: NWS Daily Summary

Daily Weather History Graph

Daily Weather History Graph

Search for Another Location

Airport or City:

Trip Planner

Search our weather history database for the weather conditions in past years. The results will help you decide how hot, cold, wet, or windy it might be!

Date:

Astronomy

Feb. 21, 2014 Rise Set
Actual Time 7:41 AM CST 6:16 PM CST
Civil Twilight 7:09 AM CST 6:48 PM CST
Nautical Twilight 6:33 AM CST 7:24 PM CST
Astronomical Twilight 5:57 AM CST 8:01 PM CST
Moon 12:42 AM CST (2/21) 10:35 AM CST (2/21)
Length of Visible Light 11h 39m
Length of Day
10h 35m
Waning Gibbous, 60% of the Moon is Illuminated
Feb 21
Waning Gibbous
Feb 22
Last Quarter
Mar 1
New
Mar 8
First Quarter
Mar 16
Full

Hourly Weather History & Observations

Time (CST) Temp. Windchill Dew Point Humidity Pressure Visibility Wind Dir Wind Speed Gust Speed Precip Events Conditions
12:54 AM -2.0 °F -17.7 °F -8.0 °F 76% 29.87 in 10.0 mi West 9.2 mph - N/A   Clear
1:54 AM -2.9 °F -17.7 °F -9.0 °F 75% 29.86 in 10.0 mi WNW 8.1 mph - N/A   Clear
2:54 AM -2.9 °F -18.8 °F -9.9 °F 72% 29.85 in 10.0 mi WNW 9.2 mph - N/A   Clear
3:54 AM -4.0 °F -20.2 °F -9.9 °F 76% 29.84 in 10.0 mi WNW 9.2 mph - N/A   Clear
4:54 AM -4.0 °F -21.2 °F -11.0 °F 72% 29.87 in 10.0 mi West 10.4 mph - N/A   Clear
5:54 AM -4.0 °F -21.2 °F -11.0 °F 72% 29.88 in 10.0 mi West 10.4 mph - N/A   Clear
6:54 AM -4.0 °F -22.1 °F -11.0 °F 72% 29.89 in 10.0 mi West 11.5 mph - N/A   Clear
7:54 AM -4.0 °F -21.2 °F -11.0 °F 72% 29.90 in 10.0 mi WNW 10.4 mph - N/A   Clear
8:54 AM -2.0 °F -19.6 °F -9.9 °F 69% 29.91 in 10.0 mi West 11.5 mph - N/A   Clear
9:54 AM 1.0 °F -18.0 °F -8.0 °F 66% 29.91 in 10.0 mi WNW 15.0 mph - N/A   Clear
10:54 AM 5.0 °F -13.0 °F -6.0 °F 61% 29.90 in 10.0 mi NW 15.0 mph - N/A   Clear
11:54 AM 7.0 °F -11.0 °F -4.0 °F 61% 29.90 in 10.0 mi WNW 16.1 mph - N/A   Clear
12:54 PM 7.0 °F -11.0 °F -2.0 °F 67% 29.90 in 10.0 mi WNW 16.1 mph - N/A   Clear
1:54 PM 10.0 °F -7.6 °F -2.0 °F 58% 29.89 in 10.0 mi WNW 17.3 mph - N/A   Clear
2:54 PM 10.9 °F -6.5 °F -2.0 °F 56% 29.90 in 10.0 mi WNW 17.3 mph - N/A   Clear
3:54 PM 10.9 °F -6.5 °F -0.9 °F 59% 29.91 in 10.0 mi NW 17.3 mph - N/A   Clear
4:54 PM 10.0 °F -8.1 °F -0.9 °F 61% 29.92 in 10.0 mi WNW 18.4 mph - N/A   Clear
5:54 PM 8.1 °F -9.6 °F -2.9 °F 61% 29.95 in 10.0 mi WNW 16.1 mph - N/A   Clear
6:54 PM 6.1 °F -12.8 °F -4.0 °F 63% 29.96 in 10.0 mi WNW 17.3 mph - N/A   Clear
7:54 PM 3.9 °F -16.1 °F -5.1 °F 66% 29.98 in 10.0 mi West 18.4 mph - N/A   Clear
8:54 PM 1.9 °F -17.5 °F -6.0 °F 69% 29.99 in 10.0 mi WNW 16.1 mph - N/A   Clear
9:54 PM 1.9 °F -19.2 °F -6.0 °F 69% 29.99 in 10.0 mi WNW 19.6 mph 27.6 mph N/A   Clear
10:54 PM 1.9 °F -19.2 °F -7.1 °F 66% 30.00 in 10.0 mi WNW 19.6 mph - N/A   Clear
11:54 PM 1.0 °F -21.4 °F -7.1 °F 69% 30.01 in 10.0 mi WNW 21.9 mph - N/A   Clear